Regional Weather Roundup
Issued by NWS Green Bay, WI

Home | Current Version | Previous Version | Graphics & Text | Print | Product List | Glossary Off
Versions: 1 2 3 4 5 6 7 8 9 10 11 12 13 14 15 16 17 18 19 20 21 22 23 24 25 26 27 28 29 30 31 32 33 34 35 36 37 38 39 40 41 42 43 44 45 46 47 48 49 50

000
ASUS43 KGRB 290700
RWRGRB

NORTH-CENTRAL AND NORTHEAST WISCONSIN REGIONAL WEATHER ROUNDUP
NATIONAL WEATHER SERVICE GREEN BAY WI
200 AM CDT SAT APR 29 2017

WIZ005-009-010>012-018-019-290800-
NORTH CENTRAL WISCONSIN

CITY           SKY/WX    TMP DP  RH WIND       PRES   REMARKS
IRONWOOD       CLEAR     24  23  96 CALM      30.19
MANITOWISH WTR NOT AVBL
ARBOR VITAE    NOT AVBL
EAGLE RIVER    NOT AVBL
LAND O LAKES   NOT AVBL
RHINELANDER    CLEAR     30  26  85 CALM      30.15R
PHILLIPS       NOT AVBL
ANTIGO         NOT AVBL
TOMAHAWK       NOT AVBL
MERRILL        NOT AVBL
$$

WIZ013-073-290800-
NORTHEAST WISCONSIN

CITY           SKY/WX    TMP DP  RH WIND       PRES   REMARKS
IRON MOUNTAIN  CLEAR     28  23  81 NW7       30.12R
MARINETTE      PTCLDY    37  26  64 N7        30.15R
$$

WIZ017-030-035>037-045-290800-
CENTRAL WISCONSIN

CITY           SKY/WX    TMP DP  RH WIND       PRES   REMARKS
MEDFORD        NOT AVBL
WAUSAU         CLOUDY    34  27  75 N6        30.14R
MOSINEE        NOT AVBL
MARSHFIELD     CLOUDY    37  28  70 NE13      30.13R
WISC RAPIDS    CLOUDY    37  31  78 NE5       30.14R
STEVENS POINT  NOT AVBL
WAUPACA        NOT AVBL
SHAWANO        NOT AVBL
CLINTONVILLE   NOT AVBL
WAUTOMA        CLOUDY    44  30  57 NE6       30.12R
$$

WIZ038-039-048-051-290800-
FOX VALLEY

CITY           SKY/WX    TMP DP  RH WIND       PRES   REMARKS
NWS GREEN BAY  CLOUDY    44  31  60 N10       30.12R
APPLETON       NOT AVBL
OSHKOSH        CLOUDY    44  29  55 N16       30.10S
FOND DU LAC    CLOUDY    45  30  55 N17G29    30.09F
$$

WIZ022-050-052-290800-
EAST CENTRAL WISCONSIN

CITY           SKY/WX    TMP DP  RH WIND       PRES   REMARKS
EPHRAIM        NOT AVBL
WASHINGTON ISL NOT AVBL
STURGEON BAY   PTCLDY    39  30  70 N16G23    30.13R
MANITOWOC      NOT AVBL
SHEBOYGAN      CLOUDY    43  38  82 N9        30.06F
$$

LMZ563-521-522-541>543-290800-
LAKESHORE

STATION/POSITION TIME  TEMP    WIND        PRES    VSBY  WAVE
                       AIR SEA DIR/SP/G                  HT/PER
                 (UTC) (F)     (DEG/KT/KT) (MB)    (MI)  (FT/S)
SHEBOYGAN LKSHOR 0600   42      10/ 12/ 13 1019.0R
KEWAUNEE LKSHORE 0630   43     350/  5/  7 1019.2R
NORTHPORT PIER   0640   38     340/ 19/ 22 1019.6R
N MID LAKE BUOY  0550   38 37   10/  2/  2 1020.3R         1/ 4
SISTER BAY LKSHO 0606   39     350/ 23/ 27   N/A
CHAMBERS ISLAND  0640   38     330/ 18/ 21 1019.6R
MENOMINEE LKSHOR 0630   39     340/ 16/ 21 1019.1R
$$




USA.gov is the U.S. government's official web portal to all federal, state and local government web resources and services.